• In Österreich
  • Länderverzeichnis
  • Für 7 Tage
  • Wassertemperatur
  • Satellitenkarten
  • Wetterkarte
  • News
  • Widgets
  • user-avatar
    Anmelden

    Stündliche Wetter Lubsko

    Heute, 20 April, Freitag

    Zeit Temperatur Niederschläge Wind Luftdruck Luftfeuchtigkeit
    00:00 +15°C° 0 mm 2 m/S 765 mmHg 86%
    01:00 +15°C° 0 mm 2 m/S 765 mmHg 88%
    02:00 +14°C° 0 mm 2 m/S 765 mmHg 90%
    03:00 +14°C° 0 mm 2 m/S 765 mmHg 91%
    04:00 +14°C° 0 mm 2 m/S 764 mmHg 92%
    05:00 +15°C° 0 mm 1 m/S 764 mmHg 88%
    06:00 +16°C° 0 mm 1 m/S 764 mmHg 83%
    07:00 +18°C° 0 mm 1 m/S 764 mmHg 79%
    08:00 +20°C° 0 mm 1 m/S 764 mmHg 70%
    09:00 +21°C° 0 mm 2 m/S 764 mmHg 61%
    10:00 +24°C° 0 mm 2 m/S 763 mmHg 53%
    11:00 +26°C° 0 mm 2 m/S 763 mmHg 48%
    12:00 +27°C° 0 mm 2 m/S 763 mmHg 44%
    13:00 +28°C° 0 mm 2 m/S 762 mmHg 39%
    14:00 +28°C° 0 mm 2 m/S 762 mmHg 40%
    15:00 +28°C° 0 mm 2 m/S 761 mmHg 40%
    16:00 +28°C° 0 mm 3 m/S 761 mmHg 40%
    17:00 +26°C° 0 mm 2 m/S 760 mmHg 48%
    18:00 +24°C° 0 mm 2 m/S 760 mmHg 56%
    19:00 +21°C° 0 mm 2 m/S 760 mmHg 64%
    20:00 +20°C° 0 mm 2 m/S 759 mmHg 67%
    21:00 +19°C° 0 mm 2 m/S 759 mmHg 70%
    22:00 +18°C° 0 mm 2 m/S 759 mmHg 72%
    23:00 +18°C° 0 mm 2 m/S 759 mmHg 73%

    Morgen, 21 April, Samstag

    Zeit Temperatur Niederschläge Wind Luftdruck Luftfeuchtigkeit
    00:00 +17°C° 0 mm 2 m/S 759 mmHg 74%
    01:00 +17°C° 0 mm 2 m/S 759 mmHg 75%
    02:00 +16°C° 0 mm 2 m/S 759 mmHg 79%
    03:00 +16°C° 0 mm 2 m/S 759 mmHg 82%
    04:00 +15°C° 0 mm 2 m/S 759 mmHg 85%
    05:00 +16°C° 0 mm 2 m/S 759 mmHg 82%
    06:00 +16°C° 0 mm 2 m/S 759 mmHg 79%
    07:00 +17°C° 0 mm 2 m/S 759 mmHg 75%
    08:00 +18°C° 0 mm 2 m/S 759 mmHg 68%
    09:00 +20°C° 0 mm 2 m/S 759 mmHg 60%
    10:00 +21°C° 0 mm 3 m/S 759 mmHg 52%
    11:00 +22°C° 0 mm 3 m/S 759 mmHg 49%
    12:00 +24°C° 0 mm 3 m/S 759 mmHg 46%
    13:00 +24°C° 0 mm 3 m/S 759 mmHg 43%
    14:00 +24°C° 0 mm 3 m/S 759 mmHg 43%
    15:00 +24°C° 0 mm 3 m/S 759 mmHg 42%
    16:00 +23°C° 0 mm 4 m/S 758 mmHg 42%
    17:00 +21°C° 0 mm 3 m/S 759 mmHg 48%
    18:00 +19°C° 0 mm 3 m/S 759 mmHg 55%
    19:00 +17°C° 0 mm 2 m/S 759 mmHg 61%
    20:00 +15°C° 0 mm 2 m/S 759 mmHg 63%
    21:00 +14°C° 0 mm 2 m/S 759 mmHg 66%
    22:00 +13°C° 0 mm 2 m/S 759 mmHg 69%
    23:00 +12°C° 0 mm 1 m/S 759 mmHg 70%

    übermorgen, 22 April, Sonntag

    Zeit Temperatur Niederschläge Wind Luftdruck Luftfeuchtigkeit
    00:00 +11°C° 0 mm 1 m/S 759 mmHg 71%
    01:00 +11°C° 0 mm 1 m/S 759 mmHg 72%
    02:00 +10°C° 0 mm 1 m/S 759 mmHg 72%
    03:00 +10°C° 0 mm 1 m/S 759 mmHg 72%
    04:00 +10°C° 0 mm 1 m/S 759 mmHg 73%
    05:00 +11°C° 0 mm 1 m/S 759 mmHg 69%
    06:00 +12°C° 0 mm 1 m/S 759 mmHg 65%
    07:00 +13°C° 0 mm 1 m/S 759 mmHg 61%
    08:00 +15°C° 0 mm 1 m/S 758 mmHg 55%
    09:00 +19°C° 0 mm 1 m/S 758 mmHg 49%
    10:00 +21°C° 0 mm 1 m/S 758 mmHg 43%
    11:00 +21°C° 0 mm 0 m/S 757 mmHg 40%
    12:00 +22°C° 0 mm 0 m/S 757 mmHg 36%
    13:00 +23°C° 0 mm 0 m/S 757 mmHg 33%
    14:00 +23°C° 0 mm 0 m/S 756 mmHg 33%
    15:00 +23°C° 0 mm 0 m/S 755 mmHg 34%
    16:00 +23°C° 0 mm 0 m/S 755 mmHg 34%
    17:00 +23°C° 0 mm 1 m/S 755 mmHg 40%
    18:00 +21°C° 0 mm 1 m/S 754 mmHg 46%
    19:00 +19°C° 0 mm 1 m/S 754 mmHg 51%
    20:00 +17°C° 0 mm 2 m/S 754 mmHg 55%
    21:00 +16°C° 0 mm 2 m/S 754 mmHg 58%
    22:00 +15°C° 0 mm 2 m/S 754 mmHg 62%
    23:00 +15°C° 0 mm 2 m/S 754 mmHg 65%

    23 April, Montag

    Zeit Temperatur Niederschläge Wind Luftdruck Luftfeuchtigkeit
    00:00 +15°C° 0 mm 2 m/S 753 mmHg 69%
    01:00 +14°C° 0 mm 2 m/S 753 mmHg 72%
    02:00 +14°C° 0 mm 2 m/S 752 mmHg 76%
    03:00 +14°C° 0 mm 2 m/S 752 mmHg 81%
    04:00 +14°C° 0 mm 2 m/S 752 mmHg 85%
    05:00 +14°C° 0,2 mm 3 m/S 751 mmHg 84%
    06:00 +16°C° 0,2 mm 3 m/S 751 mmHg 83%
    07:00 +17°C° 0,2 mm 4 m/S 751 mmHg 82%
    08:00 +18°C° 0,5 mm 4 m/S 751 mmHg 83%
    09:00 +18°C° 0,5 mm 4 m/S 751 mmHg 85%
    10:00 +18°C° 0,5 mm 4 m/S 751 mmHg 86%
    11:00 +17°C° 0,6 mm 5 m/S 750 mmHg 83%
    12:00 +19°C° 0,6 mm 5 m/S 750 mmHg 80%
    13:00 +19°C° 0,6 mm 5 m/S 750 mmHg 76%
    14:00 +19°C° 0,7 mm 6 m/S 750 mmHg 75%
    15:00 +19°C° 0,7 mm 6 m/S 751 mmHg 75%
    16:00 +17°C° 0,7 mm 6 m/S 751 mmHg 74%
    17:00 +16°C° 0,1 mm 5 m/S 751 mmHg 75%
    18:00 +14°C° 0,1 mm 4 m/S 752 mmHg 77%
    19:00 +13°C° 0,1 mm 4 m/S 752 mmHg 79%
    20:00 +12°C° 0 mm 3 m/S 753 mmHg 80%
    21:00 +11°C° 0 mm 3 m/S 753 mmHg 82%
    22:00 +10°C° 0 mm 3 m/S 754 mmHg 83%
    23:00 +10°C° 0 mm 3 m/S 754 mmHg 84%

    24 April, Dienstag

    Zeit Temperatur Niederschläge Wind Luftdruck Luftfeuchtigkeit
    00:00 +9°C° 0 mm 3 m/S 754 mmHg 85%
    01:00 +9°C° 0 mm 3 m/S 754 mmHg 87%
    02:00 +9°C° 0 mm 3 m/S 755 mmHg 87%
    03:00 +9°C° 0 mm 3 m/S 755 mmHg 87%
    04:00 +9°C° 0 mm 3 m/S 755 mmHg 87%
    05:00 +10°C° 0 mm 4 m/S 755 mmHg 83%
    06:00 +10°C° 0 mm 4 m/S 755 mmHg 79%
    07:00 +10°C° 0 mm 5 m/S 755 mmHg 75%
    08:00 +12°C° 0 mm 5 m/S 755 mmHg 70%
    09:00 +13°C° 0 mm 5 m/S 755 mmHg 66%
    10:00 +14°C° 0 mm 5 m/S 755 mmHg 62%
    11:00 +14°C° 0 mm 5 m/S 755 mmHg 63%
    12:00 +15°C° 0 mm 5 m/S 755 mmHg 64%
    13:00 +15°C° 0 mm 5 m/S 755 mmHg 65%
    14:00 +15°C° 0,1 mm 5 m/S 754 mmHg 65%
    15:00 +16°C° 0,1 mm 5 m/S 754 mmHg 66%
    16:00 +16°C° 0,1 mm 5 m/S 754 mmHg 66%
    17:00 +15°C° 0,1 mm 4 m/S 754 mmHg 72%
    18:00 +14°C° 0,1 mm 3 m/S 754 mmHg 78%
    19:00 +14°C° 0,1 mm 2 m/S 753 mmHg 84%
    20:00 +14°C° 0,1 mm 2 m/S 753 mmHg 87%
    21:00 +14°C° 0,1 mm 2 m/S 753 mmHg 90%
    22:00 +13°C° 0,1 mm 2 m/S 753 mmHg 93%
    23:00 +12°C° 0 mm 3 m/S 753 mmHg 91%

    25 April, Mittwoch

    Zeit Temperatur Niederschläge Wind Luftdruck Luftfeuchtigkeit
    00:00 +13°C° 0 mm 3 m/S 752 mmHg 89%
    01:00 +13°C° 0 mm 4 m/S 752 mmHg 87%
    02:00 +12°C° 0 mm 4 m/S 751 mmHg 88%
    03:00 +12°C° 0 mm 4 m/S 751 mmHg 88%
    04:00 +12°C° 0 mm 4 m/S 751 mmHg 89%
    05:00 +13°C° 0 mm 4 m/S 751 mmHg 85%
    06:00 +14°C° 0 mm 5 m/S 750 mmHg 82%
    07:00 +15°C° 0 mm 6 m/S 750 mmHg 79%
    08:00 +16°C° 0,1 mm 6 m/S 750 mmHg 74%
    09:00 +17°C° 0,1 mm 6 m/S 750 mmHg 69%
    10:00 +18°C° 0,1 mm 7 m/S 750 mmHg 64%
    11:00 +17°C° 0,4 mm 7 m/S 750 mmHg 67%
    12:00 +17°C° 0,4 mm 6 m/S 750 mmHg 71%
    13:00 +16°C° 0,4 mm 6 m/S 750 mmHg 75%
    14:00 +15°C° 0,2 mm 6 m/S 750 mmHg 73%
    15:00 +15°C° 0,2 mm 5 m/S 750 mmHg 71%
    16:00 +15°C° 0,2 mm 5 m/S 750 mmHg 70%
    17:00 +14°C° 0,1 mm 4 m/S 750 mmHg 71%
    18:00 +13°C° 0,1 mm 4 m/S 751 mmHg 72%
    19:00 +12°C° 0,1 mm 3 m/S 751 mmHg 73%
    20:00 +11°C° 0,2 mm 3 m/S 751 mmHg 77%
    21:00 +11°C° 0,2 mm 3 m/S 752 mmHg 81%
    22:00 +10°C° 0,2 mm 3 m/S 753 mmHg 85%
    23:00 +10°C° 0,3 mm 3 m/S 753 mmHg 86%
    Mehr zeigen